Mount Pleasant, SC

12:56 PM EDT on October 18, 2017 (GMT -0400)
Mount Pleasant

Weather History for KLRO - January, 2013

Change the Weather History Date:

Sunday, January 6, 2013

  Actual Average (KCHS) Record (KCHS)
Temperature  
Mean Temperature 50 °F -  
Max Temperature 55 °F 59 °F 78 °F (1955)
Min Temperature 44 °F 38 °F 17 °F (1999)
Degree Days  
Heating Degree Days 16    
Moisture  
Dew Point 46 °F    
Average Humidity 88    
Maximum Humidity 100    
Minimum Humidity 63    
Precipitation  
Precipitation 0.09 in - - ()
Sea Level Pressure  
Sea Level Pressure 30.19 in    
Wind  
Wind Speed 0 mph (WNW)    
Max Wind Speed 7 mph    
Max Gust Speed -    
Visibility 9 miles    
Events Rain    
Averages and records for this station are not official NWS values.
T = Trace of Precipitation, MM = Missing Value Source: NWS Daily Summary

Daily Weather History Graph

Daily Weather History Graph

Search for Another Location

Airport or City:

Trip Planner

Search our weather history database for the weather conditions in past years. The results will help you decide how hot, cold, wet, or windy it might be!

Date:

Astronomy

Jan. 06, 2013 Rise Set
Actual Time 7:22 AM EST 5:27 PM EST
Civil Twilight 6:55 AM EST 5:54 PM EST
Nautical Twilight 6:24 AM EST 6:25 PM EST
Astronomical Twilight 5:54 AM EST 6:55 PM EST
Moon 1:42 AM EST (1/6) 12:48 PM EST (1/6)
Length of Visible Light 10h 59m
Length of Day
10h 05m
Waning Crescent, 33% of the Moon is Illuminated
Jan 6
Waning Crescent
Jan 11
New
Jan 18
First Quarter
Jan 26
Full
Feb 3
Last Quarter

Hourly Weather History & Observations

Time (EST) Temp. Dew Point Humidity Pressure Visibility Wind Dir Wind Speed Gust Speed Precip Events Conditions
12:15 AM 44.6 °F 42.8 °F 93% 30.30 in 10.0 mi Calm Calm - N/A   Clear
12:35 AM 44.6 °F 42.8 °F 93% 30.29 in 10.0 mi Calm Calm - N/A   Clear
12:55 AM 44.6 °F 42.8 °F 93% 30.28 in 10.0 mi Calm Calm - N/A   Clear
1:15 AM 44.6 °F 42.8 °F 93% 30.27 in 10.0 mi Calm Calm - N/A   Clear
1:35 AM 44.6 °F 44.6 °F 100% 30.27 in 10.0 mi Calm Calm - N/A   Partly Cloudy
1:55 AM 44.6 °F 44.6 °F 100% 30.26 in 10.0 mi Calm Calm - N/A   Clear
2:15 AM 44.6 °F 44.6 °F 100% 30.26 in 10.0 mi Calm Calm - N/A   Clear
2:35 AM 44.6 °F 44.6 °F 100% 30.26 in 10.0 mi Calm Calm - N/A   Clear
2:55 AM 44.6 °F 44.6 °F 100% 30.25 in 10.0 mi Calm Calm - N/A   Scattered Clouds
3:15 AM 44.6 °F 44.6 °F 100% 30.24 in 10.0 mi Calm Calm - N/A   Mostly Cloudy
3:35 AM 46.4 °F 44.6 °F 93% 30.23 in 9.0 mi Calm Calm - N/A   Partly Cloudy
3:55 AM 46.4 °F 44.6 °F 93% 30.23 in 10.0 mi Calm Calm - N/A   Light Drizzle
4:15 AM 46.4 °F 44.6 °F 93% 30.22 in 8.0 mi Calm Calm - N/A   Light Drizzle
4:35 AM 46.4 °F 44.6 °F 93% 30.22 in 8.0 mi Calm Calm - N/A   Partly Cloudy
4:55 AM 46.4 °F 44.6 °F 93% 30.20 in 9.0 mi Calm Calm - N/A   Partly Cloudy
5:15 AM 46.4 °F 44.6 °F 93% 30.20 in 10.0 mi Calm Calm - N/A   Scattered Clouds
5:35 AM 46.4 °F 44.6 °F 93% 30.21 in 10.0 mi Calm Calm - N/A   Mostly Cloudy
5:55 AM 46.4 °F 44.6 °F 93% 30.20 in 10.0 mi Calm Calm - N/A   Scattered Clouds
6:15 AM 46.4 °F 44.6 °F 93% 30.21 in 10.0 mi Calm Calm - N/A   Scattered Clouds
6:35 AM 46.4 °F 44.6 °F 93% 30.21 in 10.0 mi Calm Calm - N/A   Mostly Cloudy
6:55 AM 46.4 °F 44.6 °F 93% 30.21 in 10.0 mi Calm Calm - N/A   Mostly Cloudy
7:15 AM 46.4 °F 44.6 °F 93% 30.22 in 10.0 mi Calm Calm - N/A   Mostly Cloudy
7:35 AM 46.4 °F 44.6 °F 93% 30.22 in 10.0 mi Calm Calm - N/A   Partly Cloudy
7:55 AM 46.4 °F 44.6 °F 93% 30.22 in 10.0 mi Calm Calm - N/A   Scattered Clouds
8:15 AM 46.4 °F 44.6 °F 93% 30.23 in 10.0 mi Calm Calm - N/A   Mostly Cloudy
8:35 AM 48.2 °F 44.6 °F 87% 30.23 in 10.0 mi Calm Calm - N/A   Scattered Clouds
8:55 AM 48.2 °F 46.4 °F 93% 30.22 in 10.0 mi Calm Calm - N/A   Mostly Cloudy
9:15 AM 50.0 °F 44.6 °F 82% 30.24 in 10.0 mi Calm Calm - N/A   Overcast
9:35 AM 51.8 °F 44.6 °F 76% 30.25 in 10.0 mi Calm Calm - N/A   Overcast
9:55 AM 51.8 °F 44.6 °F 76% 30.24 in 10.0 mi Calm Calm - N/A   Overcast
10:35 AM 51.8 °F 46.4 °F 82% 30.24 in 10.0 mi Calm Calm - N/A   Overcast
10:55 AM 53.6 °F 46.4 °F 77% 30.23 in 10.0 mi Calm Calm - N/A   Mostly Cloudy
11:15 AM 53.6 °F 46.4 °F 77% 30.22 in 10.0 mi Calm Calm - N/A   Mostly Cloudy
11:35 AM 53.6 °F 46.4 °F 77% 30.21 in 10.0 mi Calm Calm - N/A   Mostly Cloudy
11:55 AM 53.6 °F 46.4 °F 77% 30.20 in 10.0 mi Calm Calm - N/A   Mostly Cloudy
12:15 PM 53.6 °F 46.4 °F 77% 30.19 in 10.0 mi NW 3.5 mph - N/A   Overcast
12:35 PM 55.4 °F 46.4 °F 72% 30.18 in 10.0 mi Calm Calm - N/A   Overcast
12:55 PM 55.4 °F 46.4 °F 72% 30.17 in 10.0 mi Calm Calm - N/A   Overcast
1:15 PM 55.4 °F 46.4 °F 72% 30.16 in 9.0 mi Calm Calm - N/A   Overcast
1:35 PM 55.4 °F 46.4 °F 72% 30.16 in 10.0 mi Calm Calm - N/A   Overcast
1:55 PM 55.4 °F 46.4 °F 72% 30.15 in 10.0 mi NNW 4.6 mph - N/A   Overcast
2:15 PM 55.4 °F 44.6 °F 67% 30.14 in 10.0 mi NW 3.5 mph - N/A   Overcast
2:35 PM 55.4 °F 42.8 °F 63% 30.14 in 10.0 mi NW 3.5 mph - N/A   Overcast
2:55 PM 53.6 °F 44.6 °F 72% 30.14 in 8.0 mi NNW 5.8 mph - N/A Rain Light Rain
3:15 PM 51.8 °F 48.2 °F 88% 30.15 in 3.0 mi Calm Calm - 0.01 in Rain Light Rain
3:55 PM 48.2 °F 46.4 °F 93% 30.14 in 1.0 mi Calm Calm - 0.08 in   Light Drizzle
4:15 PM 48.2 °F 46.4 °F 93% 30.14 in 7.0 mi SSW 4.6 mph - N/A   Overcast
4:35 PM 48.2 °F 46.4 °F 93% 30.14 in 5.0 mi Calm Calm - N/A Rain Light Rain
4:55 PM 48.2 °F 46.4 °F 93% 30.13 in 5.0 mi Calm Calm - 0.01 in   Light Drizzle
5:15 PM 48.2 °F 46.4 °F 93% 30.13 in 8.0 mi Calm Calm - N/A   Overcast
5:55 PM 48.2 °F 48.2 °F 100% 30.13 in 5.0 mi Calm Calm - N/A   Overcast
6:15 PM 48.2 °F 48.2 °F 100% 30.13 in 9.0 mi Calm Calm - N/A   Overcast
6:35 PM 48.2 °F 48.2 °F 100% 30.13 in 8.0 mi Calm Calm - N/A   Mostly Cloudy
6:55 PM 48.2 °F 48.2 °F 100% 30.13 in 8.0 mi Calm Calm - N/A   Scattered Clouds
7:15 PM 48.2 °F 48.2 °F 100% 30.13 in 9.0 mi Calm Calm - N/A   Mostly Cloudy
7:35 PM 48.2 °F 48.2 °F 100% 30.13 in 10.0 mi Calm Calm - N/A   Scattered Clouds
7:55 PM 48.2 °F 48.2 °F 100% 30.12 in 10.0 mi Calm Calm - N/A   Mostly Cloudy
8:35 PM 50.0 °F 48.2 °F 94% 30.13 in 9.0 mi WSW 3.5 mph - N/A   Mostly Cloudy
8:55 PM 50.0 °F 46.4 °F 87% 30.14 in 10.0 mi WSW 3.5 mph - N/A   Mostly Cloudy
9:15 PM 50.0 °F 46.4 °F 87% 30.14 in 10.0 mi Calm Calm - N/A   Mostly Cloudy
9:55 PM 50.0 °F 46.4 °F 87% 30.16 in 10.0 mi Calm Calm - N/A   Mostly Cloudy
10:55 PM 50.0 °F 46.4 °F 87% 30.16 in 10.0 mi WNW 5.8 mph - N/A   Scattered Clouds
11:15 PM 50.0 °F 44.6 °F 82% 30.18 in 10.0 mi WNW 6.9 mph - N/A   Scattered Clouds
11:35 PM 51.8 °F 44.6 °F 76% 30.17 in 10.0 mi NW 5.8 mph - N/A   Overcast
11:55 PM 51.8 °F 44.6 °F 76% 30.18 in 10.0 mi NW 3.5 mph - N/A   Overcast